Location: Berlise
(49.6641°N, 4.1077°E)
Time: 02:09:35
(UTC+00:00)

SAR-Lupe-4 - Pass Details

Date: 27 January 2021
Orbit: 480 x 484 km, 98.2° (Epoch: 27 February)

Event Time Altitude Azimuth Distance (km) Brightness Sun altitude
Rises 05:42:39 0° 182° (S) 2,541 7.3 -16.1°
Reaches altitude 10° 05:44:48 10° 190° (S) 1,666 6.3 -15.7°
Maximum altitude 05:48:10 39° 260° (W) 744 4.0 -15.2°
Enters shadow 05:49:47 24° 313° (NW) 1,034 4.7 -15.0°
